AAL824 PANC-PAKT

Flight info

Callsign AAL824
Flight time 1h 51m
Altitude 34000
Route LAIRE DOOZI
Aircraft B738/M-SDE2E3FGHIRWXY/LB1

Departure

Time 2026-05-04 22:37
Airport Ted Stevens Anchorage International Airport (PANC)

Arrival

Time 2026-05-05 00:28
Airport Ketchikan International Airport (PAKT)
Time Latitude Longitude Altitude Speed Heading
2026-05-04 22:27 61.17753 -149.98978 119 ft 0 kts 24°
2026-05-04 22:31 61.17735 -149.98993 118 ft 5 kts 19°
2026-05-04 22:31 61.17700 -149.99006 118 ft 5 kts
2026-05-04 22:31 61.17673 -149.99023 115 ft 5 kts 22°
2026-05-04 22:31 61.17643 -149.99056 118 ft 5 kts 19°
2026-05-04 22:32 61.17608 -149.99065 116 ft 5 kts 351°
2026-05-04 22:32 61.17596 -149.99060 116 ft 0 kts 345°
2026-05-04 22:32 61.17648 -149.99123 119 ft 19 kts 305°
2026-05-04 22:32 61.17608 -149.99376 116 ft 19 kts 197°
2026-05-04 22:33 61.17439 -149.99282 117 ft 34 kts 157°
2026-05-04 22:33 61.17285 -149.99383 119 ft 28 kts 274°
2026-05-04 22:33 61.17198 -149.99559 117 ft 19 kts 168°
2026-05-04 22:33 61.17127 -149.99705 119 ft 25 kts 271°
2026-05-04 22:34 61.17114 -150.00228 119 ft 47 kts 266°
2026-05-04 22:34 61.17125 -150.00930 120 ft 47 kts 270°
2026-05-04 22:34 61.17126 -150.01585 120 ft 43 kts 271°
2026-05-04 22:34 61.17124 -150.02183 120 ft 40 kts 270°
2026-05-04 22:35 61.17123 -150.02732 120 ft 36 kts 270°
2026-05-04 22:35 61.17116 -150.03212 118 ft 22 kts 249°
2026-05-04 22:35 61.17040 -150.03378 118 ft 15 kts 226°
2026-05-04 22:35 61.16946 -150.03506 116 ft 19 kts 184°
2026-05-04 22:36 61.16821 -150.03438 116 ft 19 kts 151°
2026-05-04 22:36 61.16785 -150.03314 118 ft 0 kts 90°
2026-05-04 22:36 61.16785 -150.03309 118 ft 8 kts 90°
2026-05-04 22:36 61.16784 -150.02459 120 ft 106 kts 89°
2026-05-04 22:37 61.16793 -150.00382 218 ft 175 kts 88°
2026-05-04 22:37 61.16746 -149.97673 1025 ft 197 kts 89°
2026-05-04 22:37 61.16653 -149.94813 2164 ft 200 kts 92°
2026-05-04 22:37 61.16402 -149.91906 3025 ft 215 kts 106°
2026-05-04 22:38 61.15843 -149.88738 3298 ft 261 kts 112°
2026-05-04 22:38 61.15040 -149.84973 3287 ft 315 kts 116°
2026-05-04 22:38 61.14009 -149.80670 3688 ft 349 kts 115°
2026-05-04 22:38 61.13023 -149.76104 5201 ft 338 kts 114°
2026-05-04 22:39 61.12171 -149.71829 7292 ft 320 kts 115°
2026-05-04 22:39 61.11328 -149.67498 8234 ft 328 kts 115°
2026-05-04 22:39 61.10479 -149.63088 9268 ft 332 kts 116°
2026-05-04 22:39 61.09622 -149.58650 10353 ft 332 kts 116°
2026-05-04 22:40 61.08732 -149.54189 11311 ft 338 kts 117°
2026-05-04 22:40 61.07815 -149.49691 12322 ft 341 kts 117°
2026-05-04 22:40 61.06906 -149.45181 13374 ft 340 kts 118°
2026-05-04 22:40 61.05999 -149.40684 14365 ft 337 kts 118°
2026-05-04 22:41 61.05095 -149.36247 15355 ft 334 kts 119°
2026-05-04 22:41 61.04195 -149.31846 16338 ft 331 kts 119°
2026-05-04 22:41 61.03305 -149.27465 17251 ft 330 kts 119°
2026-05-04 22:41 61.02408 -149.23122 18194 ft 327 kts 120°
2026-05-04 22:42 61.01515 -149.18838 19017 ft 324 kts 119°
2026-05-04 22:42 61.00681 -149.14508 19653 ft 328 kts 119°
2026-05-04 22:42 60.99755 -149.10065 19780 ft 347 kts 120°
2026-05-04 22:42 60.98757 -149.05408 19881 ft 363 kts 120°
2026-05-04 22:43 60.97720 -149.00561 20006 ft 377 kts 119°
2026-05-04 22:43 60.96680 -148.95677 20162 ft 387 kts 119°
2026-05-04 22:43 60.95588 -148.90540 20434 ft 395 kts 119°
2026-05-04 22:43 60.94505 -148.85361 20966 ft 394 kts 118°
2026-05-04 22:44 60.93418 -148.80172 21460 ft 396 kts 118°
2026-05-04 22:44 60.92315 -148.74959 21858 ft 400 kts 118°
2026-05-04 22:44 60.91210 -148.69764 22228 ft 403 kts 118°
2026-05-04 22:44 60.90078 -148.64471 22598 ft 406 kts 118°
2026-05-04 22:45 60.88941 -148.59162 22982 ft 409 kts 118°
2026-05-04 22:45 60.86630 -148.48387 23775 ft 414 kts 118°
2026-05-04 22:45 60.85465 -148.42972 24100 ft 416 kts 118°
2026-05-04 22:46 60.84296 -148.37550 24481 ft 415 kts 119°
2026-05-04 22:46 60.83126 -148.32138 24772 ft 417 kts 119°
2026-05-04 22:46 60.81945 -148.26691 25047 ft 418 kts 119°
2026-05-04 22:46 60.80761 -148.21241 25362 ft 419 kts 120°
2026-05-04 22:47 60.79555 -148.15706 25646 ft 420 kts 120°
2026-05-04 22:47 60.78378 -148.10321 25914 ft 421 kts 120°
2026-05-04 22:47 60.77160 -148.04764 26176 ft 423 kts 120°
2026-05-04 22:47 60.75983 -147.99407 26420 ft 424 kts 120°
2026-05-04 22:48 60.74772 -147.93907 26688 ft 425 kts 120°
2026-05-04 22:48 60.73554 -147.88390 26945 ft 426 kts 120°
2026-05-04 22:48 60.72333 -147.82873 27176 ft 427 kts 120°
2026-05-04 22:48 60.71123 -147.77421 27391 ft 428 kts 120°
2026-05-04 22:49 60.69894 -147.71896 27673 ft 427 kts 120°
2026-05-04 22:49 60.68667 -147.66393 28018 ft 425 kts 121°
2026-05-04 22:49 60.67448 -147.60933 28389 ft 422 kts 121°
2026-05-04 22:49 60.66229 -147.55492 28732 ft 421 kts 121°
2026-05-04 22:50 60.65014 -147.50084 29039 ft 420 kts 121°
2026-05-04 22:50 60.63797 -147.44686 29368 ft 418 kts 122°
2026-05-04 22:50 60.62583 -147.39316 29718 ft 416 kts 122°
2026-05-04 22:50 60.61371 -147.33968 30062 ft 415 kts 122°
2026-05-04 22:51 60.60164 -147.28650 30332 ft 414 kts 122°
2026-05-04 22:51 60.58956 -147.23346 30548 ft 413 kts 122°
2026-05-04 22:51 60.57744 -147.18042 30767 ft 413 kts 122°
2026-05-04 22:51 60.56534 -147.12758 31010 ft 412 kts 122°
2026-05-04 22:52 60.55327 -147.07490 31196 ft 411 kts 123°
2026-05-04 22:52 60.54112 -147.02210 31314 ft 414 kts 123°
2026-05-04 22:52 60.52920 -146.97046 31492 ft 414 kts 123°
2026-05-04 22:52 60.51699 -146.91762 31765 ft 412 kts 123°
2026-05-04 22:53 60.50484 -146.86513 32033 ft 410 kts 123°
2026-05-04 22:53 60.49267 -146.81271 32240 ft 410 kts 123°
2026-05-04 22:53 60.48050 -146.76044 32431 ft 410 kts 123°
2026-05-04 22:53 60.46832 -146.70825 32661 ft 409 kts 124°
2026-05-04 22:54 60.45613 -146.65611 32883 ft 408 kts 124°
2026-05-04 22:54 60.44397 -146.60425 33069 ft 408 kts 124°
2026-05-04 22:54 60.43174 -146.55225 33220 ft 409 kts 124°
2026-05-04 22:54 60.41946 -146.50023 33347 ft 410 kts 124°
2026-05-04 22:55 60.39890 -146.41315 33347 ft 415 kts 124°
2026-05-04 22:55 60.37376 -146.30744 33521 ft 419 kts 124°
2026-05-04 22:56 60.36113 -146.25443 33725 ft 418 kts 124°
2026-05-04 22:56 60.34854 -146.20169 33978 ft 416 kts 124°
2026-05-04 22:56 60.32319 -146.09597 34044 ft 421 kts 124°
2026-05-04 22:57 60.29771 -145.99032 34049 ft 425 kts 124°
2026-05-04 22:57 60.27168 -145.88279 33995 ft 428 kts 125°
2026-05-04 22:58 60.24544 -145.77491 34024 ft 430 kts 125°
2026-05-04 22:58 60.21900 -145.66673 34030 ft 431 kts 125°
2026-05-04 22:59 60.19240 -145.55844 34028 ft 433 kts 125°
2026-05-04 22:59 60.16564 -145.45005 34027 ft 433 kts 125°
2026-05-04 23:00 60.13893 -145.34239 34022 ft 433 kts 125°
2026-05-04 23:00 60.11197 -145.23425 34016 ft 434 kts 126°
2026-05-04 23:01 60.08490 -145.12622 34022 ft 434 kts 126°
2026-05-04 23:01 60.05768 -145.01813 34041 ft 435 kts 126°
2026-05-04 23:02 60.03070 -144.91152 34038 ft 435 kts 126°
2026-05-04 23:02 60.00329 -144.80369 34038 ft 435 kts 126°
2026-05-04 23:03 59.97584 -144.69626 34008 ft 435 kts 126°
2026-05-04 23:03 59.94818 -144.58858 34030 ft 436 kts 126°
2026-05-04 23:04 59.92041 -144.48093 34039 ft 437 kts 127°
2026-05-04 23:04 59.89247 -144.37304 34033 ft 438 kts 127°
2026-05-04 23:05 59.86459 -144.26603 34046 ft 438 kts 127°
2026-05-04 23:05 59.83646 -144.15858 34044 ft 438 kts 127°
2026-05-04 23:06 59.80823 -144.05127 34042 ft 435 kts 127°
2026-05-04 23:06 59.78104 -143.94792 34042 ft 422 kts 127°
2026-05-04 23:07 59.75379 -143.84530 34051 ft 419 kts 127°
2026-05-04 23:07 59.72652 -143.74326 34048 ft 418 kts 128°
2026-05-04 23:08 59.69919 -143.64139 34049 ft 418 kts 128°
2026-05-04 23:08 59.67183 -143.53974 34052 ft 419 kts 128°
2026-05-04 23:09 59.64427 -143.43788 34055 ft 421 kts 128°
2026-05-04 23:09 59.61651 -143.33570 34061 ft 423 kts 128°
2026-05-04 23:10 59.58869 -143.23369 34058 ft 426 kts 128°
2026-05-04 23:10 59.56049 -143.13074 34055 ft 427 kts 128°
2026-05-04 23:11 59.53218 -143.02785 34019 ft 427 kts 128°
2026-05-04 23:11 59.50411 -142.92629 34055 ft 428 kts 128°
2026-05-04 23:12 59.47553 -142.82338 34066 ft 429 kts 128°
2026-05-04 23:12 59.44681 -142.72042 34063 ft 429 kts 128°
2026-05-04 23:13 59.41800 -142.61762 34059 ft 429 kts 129°
2026-05-04 23:13 59.38912 -142.51497 34021 ft 429 kts 129°
2026-05-04 23:14 59.36020 -142.41271 34054 ft 429 kts 129°
2026-05-04 23:14 59.33114 -142.31042 34074 ft 430 kts 129°
2026-05-04 23:15 59.30183 -142.20781 34085 ft 435 kts 129°
2026-05-04 23:15 59.27202 -142.10392 34077 ft 439 kts 129°
2026-05-04 23:16 59.24218 -142.00010 34067 ft 437 kts 129°
2026-05-04 23:16 59.21269 -141.89800 34082 ft 437 kts 129°
2026-05-04 23:17 59.18265 -141.79463 34077 ft 438 kts 129°
2026-05-04 23:17 59.15268 -141.69195 34085 ft 439 kts 129°
2026-05-04 23:18 59.12238 -141.58856 34081 ft 440 kts 129°
2026-05-04 23:18 59.09194 -141.48515 34086 ft 441 kts 129°
2026-05-04 23:19 59.06136 -141.38175 34063 ft 441 kts 130°
2026-05-04 23:19 59.03061 -141.27826 34079 ft 443 kts 130°
2026-05-04 23:20 58.99974 -141.17481 34086 ft 445 kts 130°
2026-05-04 23:20 58.96862 -141.07096 34079 ft 445 kts 130°
2026-05-04 23:21 58.93786 -140.96872 34083 ft 446 kts 130°
2026-05-04 23:21 58.90655 -140.86516 34067 ft 446 kts 130°
2026-05-04 23:22 58.87508 -140.76155 34079 ft 447 kts 130°
2026-05-04 23:22 58.84346 -140.65785 34081 ft 448 kts 130°
2026-05-04 23:23 58.81176 -140.55429 34084 ft 449 kts 130°
2026-05-04 23:23 58.77961 -140.45126 34085 ft 448 kts 131°
2026-05-04 23:24 58.74691 -140.34916 34057 ft 448 kts 131°
2026-05-04 23:24 58.71409 -140.24720 34078 ft 449 kts 131°
2026-05-04 23:25 58.68120 -140.14514 34088 ft 450 kts 131°
2026-05-04 23:25 58.64818 -140.04292 34085 ft 450 kts 131°
2026-05-04 23:26 58.61552 -139.94219 34085 ft 451 kts 131°
2026-05-04 23:26 58.58256 -139.84096 34065 ft 451 kts 131°
2026-05-04 23:27 58.54921 -139.73904 34078 ft 452 kts 131°
2026-05-04 23:27 58.51568 -139.63699 34121 ft 453 kts 131°
2026-05-04 23:28 58.48198 -139.53486 34093 ft 454 kts 131°
2026-05-04 23:28 58.44819 -139.43289 34094 ft 455 kts 131°
2026-05-04 23:29 58.41418 -139.33073 34060 ft 457 kts 131°
2026-05-04 23:29 58.37997 -139.22838 34086 ft 458 kts 131°
2026-05-04 23:30 58.34555 -139.12588 34094 ft 460 kts 131°
2026-05-04 23:30 58.31098 -139.02331 34088 ft 461 kts 131°
2026-05-04 23:31 58.27696 -138.92282 34087 ft 461 kts 131°
2026-05-04 23:31 58.24219 -138.82055 34089 ft 461 kts 131°
2026-05-04 23:32 58.20731 -138.71841 34090 ft 461 kts 131°
2026-05-04 23:32 58.17244 -138.61674 34087 ft 460 kts 131°
2026-05-04 23:33 58.13747 -138.51523 34087 ft 460 kts 131°
2026-05-04 23:33 58.10251 -138.41417 34091 ft 459 kts 132°
2026-05-04 23:34 58.06743 -138.31321 34081 ft 460 kts 131°
2026-05-04 23:34 58.03217 -138.21220 34089 ft 461 kts 132°
2026-05-04 23:35 57.99682 -138.11132 34081 ft 462 kts 132°
2026-05-04 23:35 57.96128 -138.01030 34087 ft 463 kts 132°
2026-05-04 23:36 57.92615 -137.91087 34043 ft 463 kts 131°
2026-05-04 23:36 57.89041 -137.81013 34079 ft 464 kts 132°
2026-05-04 23:37 57.85449 -137.70935 34087 ft 465 kts 132°
2026-05-04 23:37 57.81843 -137.60857 34084 ft 465 kts 132°
2026-05-04 23:38 57.78250 -137.50857 34081 ft 465 kts 132°
2026-05-04 23:38 57.74626 -137.40815 34044 ft 466 kts 131°
2026-05-04 23:39 57.70987 -137.30774 34073 ft 467 kts 132°
2026-05-04 23:39 57.67331 -137.20727 34082 ft 467 kts 132°
2026-05-04 23:40 57.63664 -137.10692 34080 ft 468 kts 132°
2026-05-04 23:40 57.59984 -137.00662 34077 ft 468 kts 132°
2026-05-04 23:41 57.56341 -136.90777 34068 ft 469 kts 131°
2026-05-04 23:41 57.52636 -136.80765 34072 ft 470 kts 132°
2026-05-04 23:42 57.48915 -136.70750 34077 ft 471 kts 132°
2026-05-04 23:42 57.45204 -136.60803 34073 ft 471 kts 132°
2026-05-04 23:43 57.41464 -136.50818 34072 ft 472 kts 132°
2026-05-04 23:43 57.37705 -136.40831 34063 ft 473 kts 131°
2026-05-04 23:44 57.33934 -136.30847 34066 ft 473 kts 132°
2026-05-04 23:44 57.30148 -136.20866 34065 ft 474 kts 132°
2026-05-04 23:45 57.26353 -136.10902 34068 ft 474 kts 132°
2026-05-04 23:45 57.22546 -136.00953 34035 ft 474 kts 131°
2026-05-04 23:46 57.19426 -135.92827 34058 ft 475 kts 131°
2026-05-04 23:46 57.15581 -135.82852 33556 ft 482 kts 131°
2026-05-04 23:47 57.13641 -135.77838 32711 ft 480 kts 131°
2026-05-04 23:47 57.11713 -135.72853 32023 ft 476 kts 131°
2026-05-04 23:47 57.09796 -135.67907 31397 ft 473 kts 131°
2026-05-04 23:47 57.07887 -135.62993 30761 ft 471 kts 131°
2026-05-04 23:48 57.05986 -135.58112 30110 ft 468 kts 131°
2026-05-04 23:48 57.04096 -135.53270 29391 ft 465 kts 131°
2026-05-04 23:48 57.02211 -135.48454 28688 ft 462 kts 131°
2026-05-04 23:48 57.00341 -135.43685 28002 ft 459 kts 131°
2026-05-04 23:49 56.98485 -135.38959 27329 ft 456 kts 131°
2026-05-04 23:49 56.96638 -135.34268 26800 ft 450 kts 131°
2026-05-04 23:49 56.94813 -135.29671 26349 ft 442 kts 133°
2026-05-04 23:49 56.93001 -135.25187 25969 ft 434 kts 132°
2026-05-04 23:50 56.91244 -135.20737 25556 ft 429 kts 131°
2026-05-04 23:50 56.89521 -135.16325 25139 ft 423 kts 131°
2026-05-04 23:50 56.87812 -135.11981 24727 ft 418 kts 131°
2026-05-04 23:50 56.86113 -135.07671 24337 ft 417 kts 131°
2026-05-04 23:51 56.84398 -135.03388 23952 ft 418 kts 132°
2026-05-04 23:51 56.82719 -134.99192 23571 ft 419 kts 131°
2026-05-04 23:51 56.80993 -134.94892 23132 ft 420 kts 132°
2026-05-04 23:51 56.79267 -134.90594 22762 ft 419 kts 131°
2026-05-04 23:52 56.77565 -134.86353 22412 ft 419 kts 131°
2026-05-04 23:52 56.75841 -134.82066 22043 ft 419 kts 131°
2026-05-04 23:52 56.74116 -134.77785 21689 ft 419 kts 131°
2026-05-04 23:52 56.72386 -134.73505 21344 ft 420 kts 131°
2026-05-04 23:53 56.70654 -134.69221 20993 ft 421 kts 131°
2026-05-04 23:53 56.68923 -134.64909 20668 ft 421 kts 131°
2026-05-04 23:53 56.67183 -134.60630 20433 ft 422 kts 131°
2026-05-04 23:53 56.65424 -134.56324 20234 ft 427 kts 131°
2026-05-04 23:54 56.63648 -134.51978 20008 ft 428 kts 131°
2026-05-04 23:54 56.61878 -134.47645 19795 ft 426 kts 131°
2026-05-04 23:54 56.60114 -134.43329 19621 ft 426 kts 131°
2026-05-04 23:54 56.58313 -134.38941 19475 ft 442 kts 131°
2026-05-04 23:55 56.56447 -134.34406 19311 ft 453 kts 131°
2026-05-04 23:55 56.54560 -134.29820 19163 ft 453 kts 131°
2026-05-04 23:55 56.50797 -134.20672 19082 ft 452 kts 131°
2026-05-04 23:56 56.48913 -134.16107 19079 ft 452 kts 131°
2026-05-04 23:56 56.47030 -134.11556 19076 ft 452 kts 131°
2026-05-04 23:56 56.45141 -134.07002 19072 ft 452 kts 131°
2026-05-04 23:56 56.43253 -134.02459 19080 ft 452 kts 131°
2026-05-04 23:57 56.41400 -133.98010 19065 ft 452 kts 131°
2026-05-04 23:57 56.39508 -133.93474 19063 ft 452 kts 131°
2026-05-04 23:57 56.37616 -133.88948 19062 ft 452 kts 131°
2026-05-04 23:57 56.35721 -133.84425 19067 ft 452 kts 131°
2026-05-04 23:58 56.33818 -133.79890 19049 ft 454 kts 131°
2026-05-04 23:58 56.31935 -133.75410 19050 ft 454 kts 131°
2026-05-04 23:58 56.30033 -133.70894 19051 ft 453 kts 131°
2026-05-04 23:58 56.28123 -133.66366 19048 ft 454 kts 131°
2026-05-04 23:59 56.26214 -133.61848 19054 ft 454 kts 131°
2026-05-04 23:59 56.24299 -133.57329 19058 ft 453 kts 131°
2026-05-04 23:59 56.22382 -133.52815 19058 ft 454 kts 131°
2026-05-04 23:59 56.20469 -133.48314 19043 ft 453 kts 131°
2026-05-05 00:00 56.18556 -133.43817 19037 ft 453 kts 131°
2026-05-05 00:00 56.17287 -133.40843 19018 ft 454 kts 131°
2026-05-05 00:00 56.14717 -133.34827 19033 ft 454 kts 131°
2026-05-05 00:00 56.12793 -133.30334 19026 ft 455 kts 131°
2026-05-05 00:01 56.10881 -133.25870 18829 ft 444 kts 131°
2026-05-05 00:01 56.09032 -133.21553 18610 ft 428 kts 131°
2026-05-05 00:01 56.07243 -133.17389 18399 ft 418 kts 131°
2026-05-05 00:01 56.05464 -133.13267 18173 ft 418 kts 132°
2026-05-05 00:02 56.03686 -133.09158 17935 ft 419 kts 132°
2026-05-05 00:02 56.01898 -133.05038 17704 ft 420 kts 131°
2026-05-05 00:02 56.00107 -133.00914 17477 ft 420 kts 131°
2026-05-05 00:02 55.98365 -132.96904 17222 ft 420 kts 131°
2026-05-05 00:03 55.96571 -132.92780 16998 ft 421 kts 131°
2026-05-05 00:03 55.94776 -132.88661 16762 ft 421 kts 131°
2026-05-05 00:03 55.93001 -132.84598 16535 ft 421 kts 131°
2026-05-05 00:03 55.91208 -132.80487 16306 ft 418 kts 131°
2026-05-05 00:04 55.89450 -132.76460 16066 ft 405 kts 131°
2026-05-05 00:04 55.87743 -132.72565 15837 ft 393 kts 131°
2026-05-05 00:04 55.86066 -132.68768 15436 ft 387 kts 131°
2026-05-05 00:04 55.84414 -132.65013 15089 ft 384 kts 131°
2026-05-05 00:05 55.82770 -132.61272 14721 ft 384 kts 130°
2026-05-05 00:05 55.81120 -132.57525 14377 ft 385 kts 130°
2026-05-05 00:05 55.79466 -132.53780 14023 ft 386 kts 130°
2026-05-05 00:05 55.77806 -132.50034 13667 ft 386 kts 130°
2026-05-05 00:06 55.76145 -132.46290 13278 ft 385 kts 130°
2026-05-05 00:06 55.74282 -132.42897 12879 ft 383 kts 143°
2026-05-05 00:06 55.72121 -132.40146 12514 ft 382 kts 147°
2026-05-05 00:06 55.69943 -132.37440 12130 ft 382 kts 146°
2026-05-05 00:07 55.67760 -132.34715 11764 ft 383 kts 146°
2026-05-05 00:07 55.65589 -132.31990 11398 ft 384 kts 146°
2026-05-05 00:07 55.63411 -132.29246 11043 ft 385 kts 145°
2026-05-05 00:07 55.61231 -132.26495 10676 ft 386 kts 145°
2026-05-05 00:08 55.59043 -132.23733 10422 ft 388 kts 145°
2026-05-05 00:08 55.56833 -132.20944 10190 ft 393 kts 144°
2026-05-05 00:08 55.54633 -132.18169 9955 ft 393 kts 144°
2026-05-05 00:08 55.52386 -132.15337 9697 ft 391 kts 144°
2026-05-05 00:09 55.50196 -132.12582 9439 ft 391 kts 144°
2026-05-05 00:09 55.47981 -132.09799 9184 ft 391 kts 144°
2026-05-05 00:09 55.45764 -132.07018 8930 ft 391 kts 144°
2026-05-05 00:09 55.43545 -132.04238 8678 ft 391 kts 144°
2026-05-05 00:10 55.41325 -132.01462 8411 ft 391 kts 144°
2026-05-05 00:10 55.39162 -131.98761 8066 ft 389 kts 144°
2026-05-05 00:10 55.36981 -131.96040 7706 ft 380 kts 144°
2026-05-05 00:10 55.34859 -131.93398 7356 ft 368 kts 144°
2026-05-05 00:11 55.32797 -131.90834 7024 ft 358 kts 144°
2026-05-05 00:11 55.30786 -131.88335 6687 ft 350 kts 144°
2026-05-05 00:11 55.28825 -131.85902 6355 ft 342 kts 144°
2026-05-05 00:11 55.26896 -131.83511 6000 ft 335 kts 144°
2026-05-05 00:12 55.25009 -131.81173 5647 ft 329 kts 144°
2026-05-05 00:12 55.23177 -131.78825 5249 ft 325 kts 149°
2026-05-05 00:12 55.21221 -131.76939 4954 ft 318 kts 146°
2026-05-05 00:12 55.19483 -131.74599 4617 ft 313 kts 140°
2026-05-05 00:13 55.17789 -131.72283 4497 ft 303 kts 143°
2026-05-05 00:13 55.16081 -131.70314 4499 ft 286 kts 144°
2026-05-05 00:13 55.14506 -131.68310 4489 ft 273 kts 143°
2026-05-05 00:13 55.13003 -131.66410 4482 ft 261 kts 143°
2026-05-05 00:14 55.11557 -131.64615 4471 ft 249 kts 143°
2026-05-05 00:14 55.10178 -131.62919 4472 ft 237 kts 144°
2026-05-05 00:14 55.08860 -131.61303 4469 ft 226 kts 143°
2026-05-05 00:14 55.07614 -131.59734 4472 ft 223 kts 143°
2026-05-05 00:15 55.06344 -131.58186 4491 ft 222 kts 144°
2026-05-05 00:15 55.05066 -131.56658 4478 ft 223 kts 144°
2026-05-05 00:15 55.03792 -131.55132 4464 ft 220 kts 144°
2026-05-05 00:15 55.02538 -131.53625 4462 ft 218 kts 144°
2026-05-05 00:16 55.01293 -131.52137 4470 ft 216 kts 144°
2026-05-05 00:16 55.00054 -131.50663 4472 ft 217 kts 144°
2026-05-05 00:16 54.98800 -131.49175 4480 ft 220 kts 144°
2026-05-05 00:16 54.97523 -131.47658 4482 ft 223 kts 144°
2026-05-05 00:17 54.96242 -131.46132 4469 ft 223 kts 144°
2026-05-05 00:17 54.94964 -131.44612 4475 ft 222 kts 144°
2026-05-05 00:17 54.93685 -131.43095 4468 ft 223 kts 144°
2026-05-05 00:17 54.92520 -131.41361 4447 ft 220 kts 120°
2026-05-05 00:18 54.92249 -131.38883 4477 ft 212 kts 79°
2026-05-05 00:18 54.93047 -131.36808 4491 ft 214 kts 36°
2026-05-05 00:18 54.94400 -131.35655 4479 ft 217 kts 26°
2026-05-05 00:18 54.95855 -131.35057 4473 ft 215 kts 360°
2026-05-05 00:19 54.97339 -131.35296 4470 ft 214 kts 356°
2026-05-05 00:19 54.98829 -131.35533 4473 ft 218 kts 356°
2026-05-05 00:19 55.00309 -131.35760 4461 ft 211 kts 357°
2026-05-05 00:19 55.01735 -131.35975 4454 ft 201 kts 356°
2026-05-05 00:20 55.03115 -131.36181 4454 ft 197 kts 357°
2026-05-05 00:20 55.04481 -131.36381 4474 ft 198 kts 357°
2026-05-05 00:20 55.05857 -131.36581 4477 ft 199 kts 357°
2026-05-05 00:20 55.07245 -131.36783 4474 ft 200 kts 357°
2026-05-05 00:21 55.08636 -131.36984 4469 ft 200 kts 357°
2026-05-05 00:21 55.10022 -131.37184 4474 ft 198 kts 357°
2026-05-05 00:21 55.11365 -131.37379 4473 ft 190 kts 357°
2026-05-05 00:21 55.12670 -131.37567 4471 ft 187 kts 358°
2026-05-05 00:22 55.13964 -131.37755 4480 ft 187 kts 357°
2026-05-05 00:22 55.15261 -131.37940 4483 ft 187 kts 357°
2026-05-05 00:22 55.16500 -131.38709 4205 ft 196 kts 319°
2026-05-05 00:22 55.17413 -131.40392 4009 ft 188 kts 317°
2026-05-05 00:23 55.18402 -131.41873 3807 ft 188 kts 329°
2026-05-05 00:23 55.19452 -131.43207 3546 ft 190 kts 310°
2026-05-05 00:23 55.20215 -131.45144 3543 ft 194 kts 311°
2026-05-05 00:23 55.21187 -131.46722 3518 ft 189 kts 322°
2026-05-05 00:24 55.22141 -131.48267 3499 ft 185 kts 317°
2026-05-05 00:24 55.23063 -131.49886 3476 ft 189 kts 316°
2026-05-05 00:24 55.23994 -131.51510 3511 ft 191 kts 318°
2026-05-05 00:24 55.24971 -131.53165 3231 ft 197 kts 317°
2026-05-05 00:25 55.25908 -131.54788 2932 ft 188 kts 318°
2026-05-05 00:25 55.26806 -131.56334 2672 ft 175 kts 318°
2026-05-05 00:25 55.27652 -131.57788 2391 ft 164 kts 318°
2026-05-05 00:25 55.28444 -131.59155 2141 ft 155 kts 319°
2026-05-05 00:26 55.29199 -131.60452 1913 ft 151 kts 319°
2026-05-05 00:26 55.29935 -131.61721 1688 ft 148 kts 317°
2026-05-05 00:26 55.30671 -131.62989 1451 ft 149 kts 317°
2026-05-05 00:26 55.31410 -131.64268 1214 ft 148 kts 316°
2026-05-05 00:27 55.32120 -131.65498 1012 ft 141 kts 315°
2026-05-05 00:27 55.32818 -131.66681 815 ft 139 kts 315°
2026-05-05 00:27 55.33512 -131.67885 614 ft 141 kts 314°
2026-05-05 00:27 55.34198 -131.69094 330 ft 138 kts 315°
2026-05-05 00:28 55.34873 -131.70214 107 ft 126 kts 315°
2026-05-05 00:28 55.35418 -131.71151 101 ft 84 kts 315°
2026-05-05 00:28 55.35723 -131.71671 99 ft 53 kts 316°
2026-05-05 00:28 55.35953 -131.72058 99 ft 42 kts 315°
2026-05-05 00:29 55.36109 -131.72308 98 ft 13 kts 341°
2026-05-05 00:29 55.36178 -131.72267 98 ft 10 kts 57°
2026-05-05 00:29 55.36164 -131.72155 98 ft 10 kts 128°
2026-05-05 00:29 55.36105 -131.72039 98 ft 15 kts 133°
2026-05-05 00:30 55.36031 -131.71901 99 ft 15 kts 132°
2026-05-05 00:30 55.35928 -131.71705 98 ft 27 kts 132°
2026-05-05 00:30 55.35799 -131.71474 99 ft 26 kts 134°
2026-05-05 00:30 55.35680 -131.71255 98 ft 24 kts 134°
2026-05-05 00:31 55.35583 -131.71094 100 ft 13 kts 136°
2026-05-05 00:31 55.35550 -131.71004 100 ft 1 kts 54°
2026-05-05 00:31 55.35560 -131.70989 100 ft 4 kts 40°
2026-05-05 00:31 55.35598 -131.70930 99 ft 7 kts 41°
2026-05-05 00:32 55.35608 -131.70915 100 ft 0 kts 41°